Wind_Speed
19 19 19 19 17 17 17 15 14 15 15 15 15 13 9 11 8 3 6 11 20 20 24 26 23 28 26 21 20 21 18 14 12 10 7 4 3 12 16 25 28 29 31
19 19 19 19 18 17 15 15 15 15 15 15 14 11 7 9 5 3 8 11 17 22 24 29 25 29 27 20 16 22 21 15 11 13 12 9 5 2 6 13 20 26 30
22 20 16 17 16 16 16 16 16 16 16 16 14 9 6 5 2 5 8 10 18 21 28 27 28 22 23 18 16 15 22 24 12 20 15 12 10 11 15 12 14 17 22
22 20 16 15 15 15 16 18 19 18 17 16 14 7 5 3 4 9 9 14 18 20 24 26 27 26 27 19 16 18 23 26 24 20 21 21 17 15 15 19 21 25 29
23 19 15 18 14 12 15 19 21 20 17 15 13 4 3 3 12 11 13 19 15 18 24 24 25 27 28 23 18 15 21 27 27 27 22 23 19 15 17 20 24 25 25
23 19 19 17 11 14 20 16 17 18 15 10 6 0 3 8 10 9 15 17 14 19 22 24 24 25 29 28 25 24 24 28 27 30 23 25 21 20 22 21 20 19 18
22 19 19 18 19 17 15 12 10 11 9 7 5 5 7 6 4 9 14 16 19 19 24 22 24 26 34 39 33 32 27 25 27 30 28 24 24 23 18 18 16 15 15
22 22 19 17 14 15 15 9 6 6 6 9 9 12 10 8 8 8 13 12 15 18 21 20 23 28 31 40 37 37 36 32 29 23 27 22 27 23 23 20 11 7 7
23 21 18 16 17 15 12 7 4 4 10 13 12 17 11 11 11 10 12 15 21 22 16 20 18 26 33 39 41 44 43 42 39 31 26 27 29 28 27 17 8 6 4
23 21 19 18 16 14 10 6 3 5 15 14 16 19 8 9 14 15 10 13 20 23 15 18 18 23 29 32 38 43 44 41 44 38 29 31 30 32 28 17 9 10 10
25 23 23 22 17 13 8 5 1 6 14 13 12 15 14 11 7 12 13 9 16 21 18 17 20 24 24 27 35 38 43 42 45 43 36 35 33 32 26 13 18 19 19
26 25 24 22 18 13 8 3 2 11 13 14 16 15 11 13 9 8 13 10 13 17 18 20 18 21 24 26 31 34 38 44 47 44 39 37 32 30 26 22 26 27 26
27 25 23 21 21 12 9 5 9 15 16 13 16 16 16 9 5 8 11 17 14 16 15 19 18 20 25 30 29 30 36 39 49 48 42 40 35 29 25 26 29 27 23
26 25 25 23 21 15 7 4 17 17 13 17 17 14 13 6 1 5 11 16 17 19 16 15 19 20 23 29 27 31 36 38 43 45 44 40 38 28 22 26 24 24 25
26 26 26 25 23 19 6 5 22 20 16 17 15 11 12 9 5 3 10 13 13 22 18 14 16 21 24 25 27 29 34 40 39 41 47 44 38 31 17 23 24 23 18
31 30 28 27 24 20 10 8 22 19 16 13 12 11 9 7 8 7 10 11 11 16 21 14 16 18 21 24 23 27 31 33 38 38 41 47 41 34 25 11 16 18 16
33 31 27 27 26 20 12 13 20 18 15 14 10 8 10 6 8 8 11 10 10 17 19 13 15 12 18 23 25 29 32 32 33 36 39 40 44 35 29 19 11 16 16
27 27 26 28 28 27 20 13 15 19 16 16 14 11 9 10 11 12 15 13 13 18 19 11 7 10 14 20 24 27 28 30 35 29 34 36 42 36 32 24 12 14 15
23 33 26 26 28 26 24 13 11 14 17 16 16 13 12 13 15 15 17 13 17 19 14 3 6 10 10 18 23 23 25 28 29 27 32 32 38 37 33 29 20 12 14
15 25 27 23 22 26 24 16 11 11 7 15 15 13 9 13 16 16 17 16 13 10 9 4 7 12 16 21 19 19 21 23 24 27 30 34 31 36 33 30 25 18 9
6 13 24 21 17 22 19 13 9 5 9 8 11 14 12 11 12 10 13 9 7 12 11 5 9 12 21 20 19 14 18 20 21 21 28 30 32 32 35 32 27 22 15
5 5 14 16 15 18 16 10 6 3 3 5 9 9 8 3 4 6 1 3 3 6 7 4 7 9 17 16 16 13 14 18 17 19 22 24 25 31 29 34 29 25 21
7 8 6 9 7 12 15 9 11 8 7 12 11 11 11 12 12 5 2 5 11 12 12 10 10 13 15 18 17 13 13 14 15 17 19 20 24 24 28 29 33 30 26
15 14 4 7 5 10 11 11 15 12 9 14 18 18 17 18 11 4 5 12 11 10 13 12 16 17 16 16 15 14 16 16 16 14 13 13 20 19 20 24 29 29 31
20 20 13 8 8 13 17 16 18 21 10 18 14 18 13 9 8 9 10 14 14 15 12 13 15 16 16 20 23 21 19 18 17 14 13 13 13 16 17 18 20 26 28
15 13 15 17 15 16 18 26 26 22 14 11 14 10 12 14 20 21 22 25 25 23 22 18 18 17 17 21 21 23 23 19 19 18 15 13 12 12 15 12 13 17 24
Wind_Direction
327 325 316 308 304 305 309 307 307 301 314 324 326 325 329 333 355 303 355 2 357 357 356 347 344 344 356 1 22 15 13 13 28 43 48 64 231 242 241 236 232 237 245
329 329 321 312 305 303 301 302 303 303 305 313 318 315 314 325 4 32 337 336 357 10 358 350 352 347 0 14 19 30 20 26 31 38 45 44 46 333 264 250 246 248 251
334 330 322 321 307 300 295 292 293 294 301 313 315 298 292 341 352 17 8 18 7 7 1 5 354 1 359 360 10 13 20 14 353 7 11 348 320 308 311 313 293 274 263
337 335 329 322 317 305 292 286 287 291 295 303 307 278 325 2 50 70 28 8 2 9 8 7 11 14 358 1 357 1 4 11 14 356 354 346 334 317 305 300 295 288 280
338 335 327 321 303 303 304 291 287 285 289 293 295 290 2 61 93 53 41 26 14 14 12 10 14 13 16 12 2 5 6 8 9 0 357 351 342 328 310 294 287 281 272
337 332 325 330 308 298 312 302 285 278 278 280 276 156 81 93 75 64 49 18 14 19 21 15 18 21 22 23 8 19 360 1 3 3 353 348 346 330 317 306 297 293 273
340 336 328 323 316 310 317 303 290 278 259 239 184 121 119 121 93 66 52 38 19 21 20 21 21 37 38 34 28 26 14 359 355 1 359 355 346 330 321 317 303 300 270
349 343 343 348 341 325 321 304 281 282 208 187 155 131 140 152 67 57 33 13 19 24 19 26 33 40 34 29 29 29 24 18 6 2 359 3 355 347 339 328 315 310 286
349 347 348 349 341 332 320 298 278 251 178 170 149 144 121 115 82 70 43 16 20 18 30 31 30 38 34 27 23 25 24 21 19 12 5 7 9 359 350 343 345 6 15
355 352 349 345 344 337 329 299 273 201 173 167 152 153 142 82 97 55 45 15 22 22 35 31 25 9 11 18 21 18 18 23 19 20 20 17 17 8 2 1 41 67 75
356 353 350 346 343 331 317 294 203 183 179 157 154 159 163 115 136 68 61 25 19 30 29 24 19 16 13 12 17 17 14 26 26 22 19 21 22 15 15 42 73 79 82
357 355 352 354 347 335 317 263 158 168 167 156 167 174 162 120 132 105 55 49 31 27 24 23 18 5 4 0 12 19 22 12 24 26 23 23 28 31 38 66 77 82 80
0 356 352 350 349 347 337 238 169 159 164 168 186 176 152 142 112 66 46 36 18 16 6 12 7 359 11 19 23 26 26 18 11 27 25 24 30 41 54 64 76 76 76
3 4 359 0 359 343 338 220 158 160 173 170 184 183 175 141 49 54 25 27 23 21 12 7 15 7 11 11 24 16 20 18 18 22 29 25 29 38 69 67 78 71 80
16 16 11 12 9 10 42 164 159 172 177 179 187 188 203 211 268 309 12 20 32 25 15 10 6 5 10 20 26 32 22 21 21 14 22 30 30 32 58 84 71 69 75
30 25 22 23 22 31 67 135 167 171 187 194 182 185 210 230 243 260 320 359 10 9 5 358 355 4 13 23 35 31 23 25 25 20 9 25 29 31 35 75 76 75 73
30 27 30 25 31 40 78 133 172 183 190 196 218 217 211 234 248 271 310 326 333 350 351 350 3 15 17 16 13 15 19 22 17 21 16 16 30 28 33 39 82 78 72
20 34 28 29 32 42 55 112 165 189 207 216 221 267 263 265 257 278 298 305 305 320 331 340 12 2 5 17 11 12 15 19 15 20 29 12 17 28 33 38 69 71 77
24 42 36 33 36 43 55 94 156 185 221 241 247 255 285 285 275 293 305 295 309 323 325 319 3 345 355 11 10 7 10 15 18 22 22 24 10 23 33 35 46 60 69
35 31 34 27 38 45 41 73 100 185 219 247 245 249 267 268 278 281 294 291 304 331 322 311 323 332 333 351 352 1 4 7 16 22 26 26 19 17 37 36 40 48 62
24 5 19 32 44 35 27 43 71 154 211 232 240 244 255 270 279 291 304 307 323 345 336 328 323 350 343 352 340 347 352 357 7 6 16 22 27 26 28 35 42 47 53
255 324 355 18 51 31 13 6 17 54 348 286 249 242 267 249 304 314 269 2 19 22 355 348 354 353 343 340 347 336 338 353 358 1 9 19 26 28 26 35 38 46 54
251 257 354 21 14 14 18 17 350 313 347 265 292 267 252 282 305 314 122 292 290 317 335 324 322 317 322 338 344 343 343 347 349 354 6 26 27 26 32 34 37 40 51
245 247 258 307 277 340 350 337 340 328 296 308 272 276 263 276 275 224 228 253 266 286 312 321 317 323 321 325 335 339 334 343 344 337 351 5 20 20 29 36 33 38 40
274 271 252 256 283 279 325 318 320 319 305 296 282 271 261 267 255 275 254 267 274 295 286 317 315 308 311 311 316 324 336 343 341 319 320 345 358 15 23 31 29 31 37
246 241 258 260 276 272 306 328 321 322 324 315 297 285 263 256 266 269 272 275 280 286 293 304 311 307 316 317 314 306 313 321 328 330 310 304 332 353 1 22 32 18 25
Height
10984 10982 10978 10974 10974 10973 10972 10970 10968 10967 10967 10966 10965 10964 10965 10964 10962 10961 10959 10958 10956 10954 10952 10949 10944 10939 10933 10928 10924 10920 10917 10913 10909 10906 10904 10903 10903 10904 10904 10905 10906 10908 10909
10981 10978 10974 10971 10969 10968 10967 10966 10966 10965 10964 10964 10963 10963 10963 10963 10962 10961 10960 10958 10956 10952 10950 10947 10943 10937 10932 10927 10924 10921 10918 10915 10911 10907 10904 10902 10901 10901 10901 10901 10901 10901 10902
10977 10974 10971 10968 10966 10964 10963 10962 10962 10962 10962 10961 10961 10961 10962 10963 10962 10961 10961 10959 10955 10952 10949 10946 10941 10935 10931 10926 10922 10919 10917 10914 10911 10907 10903 10903 10900 10898 10897 10896 10894 10893 10892
10974 10970 10968 10965 10963 10961 10960 10958 10958 10958 10958 10959 10959 10960 10961 10961 10961 10962 10961 10959 10955 10952 10948 10945 10941 10937 10930 10925 10922 10919 10915 10911 10907 10904 10901 10897 10894 10892 10890 10888 10886 10884 10882
10971 10967 10964 10962 10960 10958 10957 10956 10954 10954 10955 10957 10958 10959 10960 10960 10962 10962 10961 10959 10956 10952 10949 10945 10942 10938 10931 10926 10921 10918 10914 10910 10906 10902 10898 10893 10890 10887 10885 10882 10879 10875 10872
10969 10965 10961 10958 10957 10955 10953 10952 10951 10950 10952 10955 10956 10959 10960 10961 10962 10963 10962 10960 10957 10953 10950 10947 10943 10938 10933 10927 10921 10917 10913 10907 10903 10899 10894 10890 10886 10883 10878 10874 10870 10865 10863
10966 10962 10959 10956 10954 10951 10949 10948 10947 10948 10950 10953 10956 10959 10961 10961 10961 10962 10961 10960 10957 10954 10951 10947 10943 10939 10934 10930 10924 10918 10913 10906 10901 10897 10893 10887 10884 10879 10874 10868 10864 10859 10857
10963 10959 10956 10954 10951 10949 10947 10945 10944 10945 10948 10952 10955 10958 10959 10960 10961 10961 10961 10959 10957 10954 10952 10949 10946 10940 10935 10931 10926 10920 10914 10907 10900 10896 10892 10886 10881 10875 10869 10863 10858 10855 10852
10961 10958 10955 10952 10950 10947 10945 10943 10943 10944 10947 10950 10954 10957 10959 10961 10961 10962 10961 10960 10957 10955 10953 10950 10949 10944 10938 10932 10928 10921 10915 10909 10903 10896 10890 10884 10877 10872 10865 10858 10854 10851 10850
10961 10957 10954 10951 10947 10945 10942 10940 10941 10943 10947 10950 10954 10957 10959 10961 10962 10963 10963 10961 10958 10955 10954 10952 10949 10946 10941 10936 10931 10925 10918 10912 10904 10897 10890 10884 10877 10870 10864 10858 10854 10851 10851
10959 10956 10953 10949 10946 10942 10940 10939 10940 10943 10948 10952 10956 10957 10958 10960 10963 10964 10964 10962 10960 10957 10955 10953 10950 10947 10943 10938 10933 10928 10922 10916 10907 10900 10893 10885 10878 10872 10866 10861 10856 10853 10853
10959 10955 10951 10947 10944 10940 10938 10938 10940 10944 10949 10951 10955 10957 10960 10960 10963 10965 10964 10962 10960 10958 10956 10954 10952 10948 10944 10939 10935 10931 10924 10918 10911 10905 10898 10889 10881 10875 10870 10866 10862 10859 10858
10959 10955 10950 10946 10942 10937 10936 10936 10939 10945 10948 10952 10954 10958 10960 10961 10963 10963 10963 10960 10959 10959 10957 10956 10954 10950 10946 10942 10938 10934 10927 10920 10915 10909 10900 10893 10884 10879 10877 10873 10869 10868 10864
10961 10955 10951 10946 10941 10934 10933 10935 10940 10944 10949 10951 10954 10958 10960 10961 10963 10963 10962 10960 10959 10959 10957 10956 10953 10951 10948 10945 10941 10937 10931 10924 10919 10913 10905 10898 10890 10883 10881 10879 10878 10876 10873
10962 10956 10951 10947 10940 10935 10932 10936 10941 10947 10950 10952 10954 10958 10960 10962 10963 10963 10962 10960 10959 10959 10958 10956 10953 10950 10948 10945 10943 10940 10935 10928 10922 10917 10912 10904 10896 10890 10885 10882 10883 10883 10882
10963 10956 10951 10946 10940 10936 10934 10938 10944 10949 10952 10955 10957 10958 10959 10960 10961 10962 10962 10961 10959 10958 10958 10957 10954 10951 10948 10947 10945 10942 10937 10931 10927 10922 10916 10910 10903 10896 10891 10886 10886 10887 10887
10963 10957 10951 10946 10941 10937 10937 10940 10944 10948 10953 10955 10958 10958 10958 10958 10959 10959 10959 10960 10959 10958 10957 10957 10954 10952 10949 10947 10945 10943 10940 10935 10931 10926 10920 10914 10909 10904 10897 10892 10889 10889 10890
10964 10956 10952 10948 10944 10940 10939 10941 10946 10950 10952 10954 10955 10956 10957 10957 10958 10958 10958 10958 10958 10958 10957 10956 10954 10952 10951 10949 10946 10944 10943 10938 10933 10929 10924 10919 10915 10909 10903 10897 10894 10893 10892
10965 10957 10953 10950 10947 10943 10942 10942 10945 10949 10952 10953 10953 10953 10956 10957 10958 10958 10957 10957 10957 10957 10956 10955 10954 10952 10950 10949 10948 10945 10944 10942 10937 10933 10929 10923 10919 10913 10908 10903 10899 10898 10897
10963 10958 10955 10951 10949 10947 10945 10944 10943 10946 10948 10948 10950 10952 10954 10954 10955 10955 10955 10955 10955 10955 10955 10957 10955 10953 10951 10949 10948 10947 10945 10944 10941 10937 10934 10928 10923 10918 10913 10909 10905 10901 10901
10962 10959 10955 10952 10949 10946 10942 10941 10940 10941 10942 10944 10947 10949 10951 10952 10952 10953 10953 10953 10954 10954 10955 10954 10954 10953 10951 10949 10948 10947 10947 10945 10943 10941 10938 10933 10927 10924 10920 10915 10910 10908 10906
10959 10956 10954 10952 10949 10946 10942 10940 10940 10940 10940 10940 10943 10945 10947 10949 10951 10952 10953 10953 10953 10953 10953 10954 10953 10952 10952 10951 10949 10948 10948 10946 10944 10942 10940 10936 10932 10928 10926 10922 10917 10913 10910
10957 10953 10952 10950 10949 10942 10943 10940 10939 10939 10940 10939 10940 10941 10944 10947 10947 10949 10950 10951 10952 10951 10952 10952 10951 10952 10952 10951 10949 10948 10947 10947 10945 10943 10942 10939 10935 10932 10930 10928 10923 10919 10913
10952 10950 10949 10949 10945 10939 10939 10937 10937 10935 10936 10935 10936 10938 10941 10943 10944 10944 10946 10948 10950 10950 10949 10950 10951 10949 10949 10949 10948 10947 10946 10946 10945 10945 10944 10941 10939 10937 10934 10931 10927 10925 10920
10949 10951 10949 10947 10943 10940 10938 10937 10936 10933 10932 10932 10931 10934 10936 10938 10940 10943 10943 10945 10946 10946 10945 10946 10946 10946 10946 10947 10948 10947 10946 10945 10944 10944 10943 10942 10941 10940 10936 10932 10932 10930 10926
10946 10946 10948 10943 10943 10939 10937 10936 10934 10932 10930 10929 10927 10928 10931 10935 10936 10939 10941 10940 10940 10941 10942 10943 10943 10943 10943 10944 10943 10945 10945 10945 10943 10942 10940 10941 10942 10941 10939 10937 10935 10933 10931